RH
100 100 100 100 100 100 100 100 100 82 78 74 48 38 26 24 64 99 82 60 52 41 59 63 53 44 35 34 36 30 32 27 30 32 40 43 38 34 31 28 30 32 32 29 34
100 100 100 100 100 100 100 100 100 96 75 82 58 46 36 30 22 25 85 80 77 52 46 39 53 55 54 39 39 34 38 30 30 33 39 38 35 34 35 34 35 34 28 26 28
100 100 100 100 100 100 100 100 100 100 89 77 68 49 50 36 24 22 18 70 76 63 53 47 31 48 53 44 37 35 37 38 31 30 34 36 35 37 39 38 40 35 29 24 24
100 100 100 100 100 100 98 100 100 87 79 70 64 45 55 44 34 24 20 18 45 78 63 57 42 26 29 40 42 35 36 38 41 42 32 34 37 38 36 38 39 34 31 21 20
94 76 60 60 49 84 78 100 100 100 61 73 64 45 59 56 31 26 20 17 14 35 72 70 52 39 27 23 30 33 35 33 38 38 41 35 35 36 39 38 37 41 38 31 17
32 30 43 42 38 31 29 32 36 38 36 53 57 44 45 40 28 23 18 18 14 12 25 33 32 36 35 28 20 23 27 31 32 34 34 40 42 32 42 34 38 38 40 34 19
18 20 23 22 23 20 21 30 49 29 37 36 34 33 28 34 26 17 15 13 10 10 10 9 8 11 29 28 27 20 18 19 31 30 26 22 34 36 35 30 25 33 35 27 26
11 12 14 14 12 16 17 23 16 24 17 12 19 20 16 21 18 15 12 10 9 8 8 6 6 6 8 16 28 18 19 15 23 24 17 19 30 33 23 24 26 22 26 28 22
9 9 10 9 12 12 12 13 12 9 6 10 11 9 9 10 10 10 9 7 7 8 6 6 7 6 5 6 11 15 20 18 15 14 18 16 30 43 30 22 28 22 21 24 24
7 7 7 8 10 10 11 11 8 8 5 6 6 5 6 6 6 5 5 6 6 5 5 5 5 5 5 4 4 6 10 13 17 16 16 14 25 22 16 13 17 18 18 18 18
6 7 7 7 8 7 8 6 5 4 4 4 4 4 4 5 4 5 5 5 5 4 4 4 4 4 4 4 4 4 6 8 13 12 16 13 22 13 12 11 11 10 10 13 14
6 6 7 7 5 4 3 3 3 3 3 4 4 4 4 4 5 5 5 5 5 5 4 4 4 4 3 3 4 4 4 4 5 8 10 9 12 11 9 10 10 10 12 14 14
6 5 3 2 2 2 2 2 2 3 3 3 3 4 4 4 5 5 6 5 5 4 4 3 3 3 3 3 4 4 4 4 4 5 5 7 10 10 13 13 10 8 8 8 8
2 2 3 3 2 2 3 3 3 3 3 4 4 4 5 6 6 6 6 5 5 4 4 4 4 4 4 4 4 4 5 5 4 5 5 5 6 6 7 7 7 6 5 4 4
2 3 3 3 3 3 3 3 4 4 4 5 5 5 5 6 6 6 6 5 5 5 5 5 5 5 4 4 5 5 4 4 3 3 4 4 4 3 3 3 2 2 2 2 2
6 7 6 6 6 7 7 7 9 9 8 8 10 9 9 9 9 8 7 6 6 6 6 6 6 6 6 6 6 5 5 4 4 4 4 3 4 3 3 2 2 2 2 1 2
12 12 14 16 16 16 16 16 14 12 12 11 11 10 9 9 9 9 9 8 8 7 7 6 6 7 7 6 6 6 5 5 4 4 4 3 4 3 3 2 2 2 2 2 2
18 18 17 16 15 16 16 16 18 14 12 13 13 11 9 9 9 7 7 7 8 10 10 10 10 9 9 8 8 6 5 5 5 4 3 3 3 3 2 2 2 2 2 2 2
18 17 18 16 14 14 12 10 9 9 10 11 14 15 15 14 15 16 16 19 17 15 14 12 12 13 13 14 12 9 7 8 8 7 8 6 5 4 3 2 2 2 1 1 1
23 22 22 19 17 15 12 10 9 8 7 7 7 7 7 8 8 10 11 11 12 12 12 12 12 12 13 13 12 11 10 9 7 6 5 4 3 2 2 2 2 2 1 1 1
24 25 24 22 19 18 14 10 8 7 5 5 5 5 5 5 5 5 6 7 8 8 8 7 7 7 6 6 5 5 4 4 4 3 3 3 3 3 3 3 2 3 2 2 2
25 25 23 20 17 16 13 9 6 6 5 4 4 3 3 3 3 3 3 4 4 4 3 4 4 4 4 4 4 4 5 6 8 8 7 6 5 5 4 4 3 3 3 2 2
23 24 23 19 15 14 13 10 7 5 4 3 3 3 3 4 4 3 3 3 3 4 4 4 5 5 6 8 12 15 14 19 15 12 9 6 6 6 6 5 4 4 3 3 3
26 28 26 24 20 16 14 13 9 6 5 4 4 4 4 4 4 4 4 5 5 6 7 9 12 14 17 23 26 22 17 19 14 12 14 12 8 12 10 8 19 32 20 14 13
33 32 34 33 33 26 21 15 15 11 7 5 6 7 7 5 5 4 7 10 11 14 16 16 20 30 31 30 27 21 22 23 19 15 26 19 36 27 48 76 81 97 83 95 31
37 36 35 38 41 40 34 26 20 18 15 12 8 6 6 8 10 10 11 12 15 20 20 24 24 30 30 26 28 35 32 39 55 37 26 60 57 61 100 100 100 100 100 100 83
33 34 34 34 34 40 43 44 34 26 26 23 21 20 17 11 12 19 26 32 31 27 26 28 22 21 30 34 37 43 45 60 52 66 94 99 98 85 100 100 100 100 100 100 100
Wind_Speed
71 69 69 68 67 72 75 78 79 76 69 67 72 78 86 92 101 111 118 115 109 105 101 100 96 91 87 85 79 79 74 63 66 71 70 70 61 56 53 51 51 50 49 44 42
72 68 71 75 79 78 75 78 84 85 73 70 71 76 81 90 95 99 112 118 119 111 106 103 103 100 93 90 85 86 73 75 72 73 72 70 60 56 52 53 54 54 52 47 45
73 74 74 80 83 84 87 86 86 87 79 72 71 76 80 85 91 97 102 110 119 117 112 108 107 105 103 95 91 90 86 80 81 81 76 76 72 65 61 57 60 57 54 53 49
76 78 84 83 87 88 89 89 88 81 75 71 70 74 80 83 86 92 98 104 111 116 117 112 111 109 107 102 99 92 92 91 86 83 83 80 78 72 68 66 65 59 58 55 54
83 82 82 79 77 78 84 85 88 83 75 71 69 73 79 83 85 89 91 98 102 110 114 119 117 113 109 107 103 98 95 96 95 88 86 88 83 78 68 69 69 65 64 64 60
83 81 79 77 76 72 71 71 73 64 60 63 65 72 79 81 81 84 86 88 99 100 113 117 120 118 115 112 108 101 98 97 97 94 90 88 84 81 75 78 75 73 71 68 68
81 79 74 73 71 66 65 63 62 62 61 60 62 70 77 77 80 78 79 84 88 96 105 111 109 109 113 114 109 106 103 98 97 102 96 95 86 80 85 85 77 74 76 74 73
71 67 64 60 58 58 58 61 60 60 58 55 60 66 72 75 74 74 76 80 79 86 93 102 104 103 105 111 114 110 106 104 103 102 100 93 83 88 92 90 84 80 79 80 78
56 56 55 51 50 51 50 51 54 53 49 49 56 59 65 68 69 69 71 70 70 75 81 88 93 97 99 101 106 111 109 108 107 105 101 97 88 94 98 94 86 86 84 83 83
47 47 46 44 44 44 45 48 46 47 45 49 54 55 57 64 65 63 61 59 62 66 70 77 85 89 93 93 97 103 107 108 110 107 103 101 95 100 100 93 90 91 92 89 86
37 35 34 34 32 35 35 38 36 37 40 43 44 47 49 54 52 53 52 55 57 56 63 67 74 80 85 85 87 92 98 102 104 106 104 107 98 103 104 98 99 96 93 94 92
27 24 23 24 26 23 23 26 27 26 30 30 34 38 39 41 42 45 47 47 47 50 55 62 69 68 72 76 77 79 85 90 95 100 100 103 106 103 101 103 102 100 98 97 97
10 10 11 10 11 11 13 15 17 21 25 29 30 31 32 33 33 33 33 34 39 45 49 52 56 59 58 59 64 68 71 78 83 90 92 96 103 104 104 103 100 102 102 101 98
17 16 13 8 6 5 6 8 12 15 18 19 21 23 25 26 27 30 32 35 35 38 42 43 42 41 43 46 49 52 59 66 69 74 79 83 90 88 91 94 97 94 94 89 86
33 30 24 28 27 25 24 21 18 15 14 15 16 17 17 19 19 21 22 24 25 28 32 34 37 40 42 43 47 52 57 60 64 67 71 77 80 81 84 86 84 81 74 74 72
42 38 35 37 36 34 30 28 25 20 17 15 13 15 15 18 19 21 23 25 27 27 29 32 34 34 37 43 46 48 52 56 61 64 68 72 71 77 80 81 78 73 68 63 63
50 47 46 43 39 35 31 27 24 21 17 16 13 12 11 12 15 18 21 23 24 26 27 28 30 32 37 41 42 44 48 52 55 57 58 62 61 65 69 66 62 62 60 60 59
55 54 53 49 46 41 35 29 26 21 17 15 14 14 14 15 16 18 20 21 22 22 23 26 29 29 31 32 35 38 41 43 44 46 49 54 56 59 58 57 56 55 57 57 56
65 62 60 55 49 44 39 33 27 23 19 17 15 14 14 14 14 15 14 16 18 20 22 24 25 27 28 29 32 34 39 39 43 43 47 48 50 54 52 53 52 51 50 51 51
63 62 58 55 51 45 41 36 32 27 20 15 11 9 10 11 14 16 18 19 21 22 22 23 25 24 23 27 30 33 33 36 37 40 43 44 44 45 45 41 38 36 36 38 39
63 64 57 55 50 45 41 38 35 30 26 20 16 13 10 6 5 6 10 14 16 16 17 18 18 19 19 21 22 26 26 26 25 29 31 30 27 27 25 23 23 24 26 25 27
61 66 60 57 53 49 46 42 39 36 32 26 22 17 13 9 6 3 5 6 9 11 9 11 12 13 13 14 13 11 11 9 14 16 18 17 15 11 6 10 12 13 14 14 18
59 63 66 65 63 61 59 55 50 46 41 35 32 29 24 21 15 13 12 12 10 11 12 14 13 14 14 10 9 7 5 6 8 7 4 4 3 4 5 7 9 10 12 14 16
60 66 66 69 71 71 72 67 64 60 55 50 45 40 36 31 27 25 23 21 20 21 20 21 20 17 14 12 12 5 11 11 9 9 11 10 15 26 23 21 26 25 25 26 23
60 65 68 72 75 77 79 79 74 71 65 60 57 54 50 42 35 32 32 30 30 28 25 23 22 21 17 16 18 18 20 20 18 16 23 21 31 38 39 40 43 38 40 36 29
62 64 65 70 74 77 77 78 80 78 74 73 70 64 59 56 53 54 44 39 37 32 27 25 23 22 21 23 25 26 28 29 27 22 31 38 40 51 52 46 41 42 43 40 36
57 59 61 64 67 72 76 77 79 80 83 82 80 76 73 67 64 61 53 49 48 46 47 42 34 32 30 29 28 26 31 34 29 37 46 49 44 52 52 44 37 49 38 40 43
Wind_Direction
293 286 285 283 282 279 277 277 280 283 277 269 255 249 246 241 238 239 239 239 239 239 237 237 235 234 234 236 237 235 233 232 233 234 235 240 241 242 242 246 244 244 244 243 243
290 289 283 280 279 277 276 276 278 282 275 266 259 248 246 245 243 238 238 238 238 238 237 238 237 236 237 235 236 235 236 232 232 234 236 239 239 244 245 245 247 247 245 244 242
291 285 281 277 277 276 275 273 272 275 273 265 259 249 245 245 244 241 238 237 238 238 238 239 237 237 236 235 233 233 234 235 234 235 236 240 243 243 242 243 247 247 247 245 246
290 285 281 277 275 274 272 273 275 276 270 262 256 249 245 245 244 243 239 237 236 237 237 236 238 237 236 237 236 235 233 235 235 239 237 239 241 245 243 245 250 249 249 249 248
286 283 282 280 279 274 276 273 272 273 268 259 253 246 244 245 244 243 242 237 235 235 235 236 238 238 237 237 237 235 235 236 238 238 237 239 242 245 246 248 250 251 251 252 248
284 283 282 281 279 277 271 266 264 260 255 246 247 245 243 244 244 243 241 239 236 235 234 236 237 238 238 237 237 237 236 236 238 240 238 240 241 244 248 246 246 248 249 251 252
283 279 279 278 278 276 272 270 262 262 254 251 247 245 243 243 242 242 241 240 237 235 234 235 237 236 236 235 236 236 237 237 239 241 240 241 242 245 246 250 248 249 251 250 253
282 280 277 275 276 273 273 269 266 259 256 248 247 244 242 242 242 241 240 238 237 235 235 235 235 236 236 236 236 236 237 238 239 240 241 243 240 246 247 247 248 250 250 251 254
282 281 278 278 275 273 269 265 262 258 251 246 244 240 240 241 240 242 241 240 239 237 234 234 232 235 236 235 235 237 238 238 241 240 241 243 240 244 248 248 248 250 251 251 252
283 280 279 275 272 265 263 259 253 250 246 241 240 235 236 236 236 237 237 238 237 233 230 230 232 234 236 236 236 236 237 237 239 242 244 245 242 244 248 251 250 249 249 251 253
293 285 280 273 262 263 259 256 253 241 238 237 234 235 233 235 235 234 234 230 231 228 229 230 230 233 235 235 235 235 236 238 240 242 244 244 244 247 248 250 251 252 253 254 256
288 291 281 275 271 257 243 236 234 232 228 223 221 222 225 227 228 226 227 227 227 226 226 230 231 234 235 235 237 239 240 241 242 242 244 246 246 248 250 252 253 253 256 257 255
308 275 259 269 267 246 229 223 220 220 215 213 213 209 212 214 216 216 217 216 219 224 225 230 233 235 235 236 238 241 244 245 244 244 246 249 250 252 255 256 256 255 256 258 257
35 30 27 26 50 85 134 155 172 185 187 192 195 197 195 199 203 205 206 209 217 219 219 224 226 226 228 232 237 243 244 244 245 245 245 246 249 250 251 252 254 254 253 254 255
64 58 64 76 75 80 85 89 93 107 122 146 160 174 184 192 204 205 205 212 216 218 220 222 226 230 234 237 237 235 237 238 239 242 243 243 246 250 251 251 253 256 257 258 258
79 80 81 83 84 81 82 87 92 96 112 125 143 162 173 182 189 194 199 203 206 206 209 213 215 219 223 228 231 234 236 238 239 240 243 245 245 251 252 253 257 261 259 254 251
76 72 72 71 72 76 78 80 85 93 101 111 123 146 158 174 180 181 188 192 196 202 209 211 216 221 225 228 231 234 236 238 240 242 245 248 251 253 257 258 257 258 256 253 250
74 70 69 70 72 75 79 81 88 94 101 114 125 138 154 157 169 177 184 190 191 196 204 207 211 216 221 226 230 234 239 243 247 250 251 254 256 259 257 260 263 263 263 260 258
63 61 58 57 58 60 62 66 76 89 98 112 126 141 153 156 167 172 177 182 189 198 204 209 211 217 221 227 234 237 242 247 251 255 260 261 264 267 269 268 268 267 266 264 261
60 58 55 52 50 48 49 50 52 58 63 71 89 114 139 160 169 177 181 191 194 204 208 209 218 222 226 234 241 250 254 257 263 266 266 269 270 270 269 271 271 268 262 257 254
60 61 57 55 50 47 43 42 43 45 50 55 60 65 73 92 137 170 193 206 212 221 225 229 232 234 237 241 246 248 254 255 256 257 262 265 268 272 276 275 266 258 252 246 243
63 65 62 59 57 55 51 48 49 53 52 54 60 66 73 75 82 131 174 183 194 205 207 207 210 204 201 211 217 229 232 235 246 254 256 264 270 281 282 255 251 240 227 217 222
64 64 62 59 56 57 56 55 56 59 61 64 65 64 66 72 85 94 117 134 154 140 137 138 131 146 156 164 160 157 160 197 230 224 236 248 248 93 131 170 167 175 168 166 185
63 63 60 58 57 57 58 58 59 60 61 64 65 65 66 70 79 89 94 101 102 104 108 117 120 127 126 124 125 149 132 126 128 136 119 110 108 107 115 122 125 124 124 130 145
64 64 62 60 59 57 56 58 58 60 61 65 67 67 66 68 72 79 84 86 88 90 95 99 105 113 120 119 116 124 124 119 121 118 112 110 107 111 114 116 116 119 124 122 137
65 65 67 65 62 61 59 56 59 60 62 64 67 68 70 71 74 73 72 76 77 82 82 91 103 105 113 109 109 107 106 104 113 112 112 109 107 119 122 113 124 123 127 132 133
57 57 60 63 64 63 63 62 60 59 61 59 60 62 62 61 62 66 68 71 74 75 75 77 78 82 86 87 92 98 104 109 114 112 116 113 113 126 125 117 122 133 128 134 133